Starlink 34773

operational
NORAD ID: 65024 Int'l Des: 2025-161 Owner: SPXS Country: US Constellation: starlink
LEOCIRCULAR

Starlink 34773について

説明を読み込み中...

リアルタイム位置

3D地球を読み込み中...

次回通過

高度履歴

Altitude vs Time

uPlot chart will show altitude changes over time

軌道要素

1 65024U 25161K 26095.60997969 .00026799 00000-0 91318-3 0 9997
2 65024 53.1585 169.0031 0001387 95.8316 264.2843 15.30217273 39447
Epoch: Apr 5, 2026 • Age: 5 hours

現在のステータス

高度 479.8 km
速度 7.63 km/s
衛星直下点 48.82°N, 158.15°E
打ち上げ日 Jul 30, 2025
運用期間 0.6 years
タイプ internet

技術仕様

分類 Payload
質量 575.00 kg
乾燥質量 530.00 kg
総質量 575.00 kg
長さ 0.30 m
直径 4.10 m
スパン 29.00 m
形状 Box + pan
製造者 SPXS
バスタイプ Starlink V2MO
フェーズステータス In Orbit
所有者/国 SPXS/US

大規模コンステレーション

Loading constellations...